Tillbaka till svenska Fidonet
English   Information   Debug  
FILM   0/18
FNEWS_PUBLISH   4751
FN_SYSOP   42033
FN_SYSOP_OLD1   71952
FTP_FIDO   0/2
FTSC_PUBLIC   0/13899
FUNNY   0/4886
GENEALOGY.EUR   0/71
GET_INFO   105
GOLDED   0/408
HAM   11064/16389
HOLYSMOKE   0/6791
HOT_SITES   0/1
HTMLEDIT   0/71
HUB203   466
HUB_100   264
HUB_400   39
HUMOR   0/29
IC   0/2851
INTERNET   0/424
INTERUSER   0/3
IP_CONNECT   719
JAMNNTPD   0/233
JAMTLAND   0/47
KATTY_KORNER   0/41
LAN   0/16
LINUX-USER   0/19
LINUXHELP   0/1155
LINUX   0/22267
LINUX_BBS   0/957
mail   18.68
mail_fore_ok   249
MENSA   0/341
MODERATOR   0/102
MONTE   0/992
MOSCOW_OKLAHOMA   0/1245
MUFFIN   0/783
MUSIC   0/321
N203_STAT   938
N203_SYSCHAT   313
NET203   321
NET204   69
NET_DEV   0/10
NORD.ADMIN   0/101
NORD.CHAT   0/2572
NORD.FIDONET   189
NORD.HARDWARE   0/28
NORD.KULTUR   0/114
NORD.PROG   0/32
NORD.SOFTWARE   0/88
NORD.TEKNIK   0/58
NORD   0/453
OCCULT_CHAT   0/93
OS2BBS   0/787
OS2DOSBBS   0/580
OS2HW   0/42
OS2INET   0/37
OS2LAN   0/134
OS2PROG   0/36
OS2REXX   0/113
OS2USER-L   207
OS2   0/4806
OSDEBATE   0/18996
PASCAL   0/490
PERL   0/457
PHP   0/45
POINTS   0/405
POLITICS   0/29554
POL_INC   0/14731
PSION   103
R20_ADMIN   1132
R20_AMATORRADIO   0/2
R20_BEST_OF_FIDONET   14
R20_CHAT   0/893
R20_DEPP   0/3
R20_DEV   399
R20_ECHO2   1668
R20_ECHOPRES   0/35
R20_ESTAT   0/719
R20_FIDONETPROG...
...RAM.MYPOINT
  0/2
R20_FIDONETPROGRAM   0/22
R20_FIDONET   0/248
R20_FILEFIND   0/24
R20_FILEFOUND   0/22
R20_HIFI   0/3
R20_INFO2   3559
R20_INTERNET   0/12940
R20_INTRESSE   0/60
R20_INTR_KOM   0/99
R20_KANDIDAT.CHAT   42
R20_KANDIDAT   28
R20_KOM_DEV   112
R20_KONTROLL   11564/13360
R20_KORSET   0/18
R20_LOKALTRAFIK   0/24
R20_MODERATOR   0/1852
R20_NC   76
R20_NET200   245
R20_NETWORK.OTH...
...ERNETS
  0/13
R20_OPERATIVSYS...
...TEM.LINUX
  0/44
R20_PROGRAMVAROR   0/1
R20_REC2NEC   534
R20_SFOSM   0/341
R20_SF   0/108
R20_SPRAK.ENGLISH   0/1
R20_SQUISH   107
R20_TEST   2
R20_WORST_OF_FIDONET   20
RAR   0/9
RA_MULTI   106
RA_UTIL   0/162
REGCON.EUR   0/2066
REGCON   0/13
SCIENCE   0/1206
SF   0/239
SHAREWARE_SUPPORT   973/5146
SHAREWRE   0/14
SIMPSONS   0/169
STATS_OLD1   0/2539.065
STATS_OLD2   0/2530
STATS_OLD3   0/2395.095
STATS_OLD4   0/1692.25
SURVIVOR   0/495
SYSOPS_CORNER   0/3
SYSOP   0/84
TAGLINES   0/112
TEAMOS2   0/4530
TECH   0/2617
TEST.444   0/105
TRAPDOOR   0/19
TREK   0/755
TUB   0/290
UFO   0/40
UNIX   0/1316
USA_EURLINK   0/102
USR_MODEMS   0/1
VATICAN   0/2740
VIETNAM_VETS   0/14
VIRUS   0/378
VIRUS_INFO   0/201
VISUAL_BASIC   0/473
WHITEHOUSE   0/5187
WIN2000   0/101
WIN32   0/30
WIN95   0/4291
WIN95_OLD1   70169/70272
WINDOWS   0/1517
WWB_SYSOP   0/419
WWB_TECH   0/810
ZCC-PUBLIC   0/1
ZEC   4

 
4DOS   0/134
ABORTION   0/7
ALASKA_CHAT   0/506
ALLFIX_FILE   0/1313
ALLFIX_FILE_OLD1   0/7997
ALT_DOS   0/152
AMATEUR_RADIO   0/1039
AMIGASALE   0/14
AMIGA   0/331
AMIGA_INT   0/1
AMIGA_PROG   0/20
AMIGA_SYSOP   0/26
ANIME   0/15
ARGUS   0/924
ASCII_ART   0/340
ASIAN_LINK   0/651
ASTRONOMY   0/417
AUDIO   0/92
AUTOMOBILE_RACING   0/105
BABYLON5   0/17862
BAG   135
BATPOWER   0/361
BBBS.ENGLISH   0/382
BBSLAW   0/109
BBS_ADS   0/5290
BBS_INTERNET   0/507
BIBLE   0/3563
BINKD   0/1119
BINKLEY   0/215
BLUEWAVE   0/2173
CABLE_MODEMS   0/25
CBM   0/46
CDRECORD   0/66
CDROM   0/20
CLASSIC_COMPUTER   0/378
COMICS   0/15
CONSPRCY   0/899
COOKING   39899
COOKING_OLD1   0/24719
COOKING_OLD2   0/40862
COOKING_OLD3   0/37489
COOKING_OLD4   0/35496
COOKING_OLD5   9370
C_ECHO   0/189
C_PLUSPLUS   0/31
DIRTY_DOZEN   0/201
DOORGAMES   0/2155
DOS_INTERNET   0/196
duplikat   6102
ECHOLIST   0/18295
EC_SUPPORT   0/318
ELECTRONICS   0/359
ELEKTRONIK.GER   1534
ENET.LINGUISTIC   0/13
ENET.POLITICS   0/4
ENET.SOFT   0/11701
ENET.SYSOP   34210
ENET.TALKS   0/32
ENGLISH_TUTOR   0/2000
EVOLUTION   0/1335
FDECHO   0/217
FDN_ANNOUNCE   0/7068
FIDONEWS   24749
FIDONEWS_OLD1   0/49742
FIDONEWS_OLD2   0/35949
FIDONEWS_OLD3   0/30874
FIDONEWS_OLD4   0/37224
FIDO_SYSOP   12913
FIDO_UTIL   0/180
FILEFIND   0/209
FILEGATE   0/212
Möte HAM, 16389 texter
 lista första sista föregående nästa
Text 5549, 1161 rader
Skriven 2012-10-12 01:00:55 av Amsat List (1:323/120.0)
Ärende: [keps] orb12285.amsa
============================
[keps] orb12285.amsa

Sender: keps-bounces@amsat.org
Return-Path: <keps-bounces@amsat.org>
X-Rcpt: craig.healy@chowda.com
X-UIDL: 1350016462.20494

SB KEPS @ AMSAT  $ORB12285.O
Orbital Elements  12285.OSCAR

HR AMSAT ORBITAL ELEMENTS FOR OSCAR SATELLITES
FROM WA5QGD FORT WORTH,TX October 11, 2012
Send SUBSCRIBE KEPS/UNSUBSCRIBE KEPS to majordomo@amsat.org only
BID: ORB12285.O
TO ALL RADIO AMATEURS BT

Satellite: AO-07
Catalog number: 07530
Epoch time:      12284.54406943
Element set:    0503
Inclination:      101.4121 deg
RA of node:       277.3381 deg
Eccentricity:    0.0012216
Arg of perigee:   056.3496 deg
Mean anomaly:     303.8739 deg
Mean motion:   12.53591863 rev/day
Decay rate:       -2.7e-07 rev/day^2
Epoch rev:           73450
Checksum:              284

Satellite: FO-29
Catalog number: 24278
Epoch time:      12284.84366523
Element set:    0960
Inclination:      098.5862 deg
RA of node:       010.3749 deg
Eccentricity:    0.0351253
Arg of perigee:   089.9153 deg
Mean anomaly:     274.2229 deg
Mean motion:   13.52989879 rev/day
Decay rate:      -1.12e-06 rev/day^2
Epoch rev:           79759
Checksum:              360

Satellite: SO-33
Catalog number: 25509
Epoch time:      12284.69490101
Element set:    0343
Inclination:      031.4311 deg
RA of node:       039.9828 deg
Eccentricity:    0.0351645
Arg of perigee:   134.1397 deg
Mean anomaly:     228.8708 deg
Mean motion:   14.28835689 rev/day
Decay rate:       7.74e-06 rev/day^2
Epoch rev:           72918
Checksum:              332

Satellite: RS-22
Catalog number: 27939
Epoch time:      12285.52143805
Element set:     804
Inclination:      097.8032 deg
RA of node:       120.3386 deg
Eccentricity:    0.0012272
Arg of perigee:   257.1627 deg
Mean anomaly:     102.8222 deg
Mean motion:   14.64162501 rev/day
Decay rate:       6.11e-06 rev/day^2
Epoch rev:           48290
Checksum:              276

Satellite: VO-52
Catalog number: 28650
Epoch time:      12285.90894416
Element set:     231
Inclination:      097.5890 deg
RA of node:       311.1180 deg
Eccentricity:    0.0026934
Arg of perigee:   020.1270 deg
Mean anomaly:     340.1008 deg
Mean motion:   14.83250294 rev/day
Decay rate:      1.698e-05 rev/day^2
Epoch rev:           40227
Checksum:              284

Satellite: HO-68
Catalog number: 36122
Epoch time:      12285.73468733
Element set:     909
Inclination:      100.3467 deg
RA of node:       342.6591 deg
Eccentricity:    0.0007448
Arg of perigee:   199.6645 deg
Mean anomaly:     160.4196 deg
Mean motion:   13.16298786 rev/day
Decay rate:       -4.4e-07 rev/day^2
Epoch rev:           13572
Checksum:              335

/EX
SB KEPS @ AMSAT  $ORB12285.D
Orbital Elements  12285.MICROS

HR AMSAT ORBITAL ELEMENTS FOR THE MICROSATS
FROM WA5QGD FORT WORTH,TX October 11, 2012
Send SUBSCRIBE KEPS/UNSUBSCRIBE KEPS to majordomo@amsat.org only
BID: ORB12285.D
TO ALL RADIO AMATEURS BT

Satellite: UO-11
Catalog number: 14781
Epoch time:      12285.77223597
Element set:     998
Inclination:      097.9412 deg
RA of node:       344.1923 deg
Eccentricity:    0.0009573
Arg of perigee:   021.4523 deg
Mean anomaly:     338.7087 deg
Mean motion:   14.80593703 rev/day
Decay rate:       4.74e-06 rev/day^2
Epoch rev:           53718
Checksum:              333

Satellite: AO-16
Catalog number: 20439
Epoch time:      12284.86022359
Element set:    0596
Inclination:      098.4399 deg
RA of node:       225.0510 deg
Eccentricity:    0.0010749
Arg of perigee:   172.0277 deg
Mean anomaly:     188.1078 deg
Mean motion:   14.32093512 rev/day
Decay rate:       1.51e-06 rev/day^2
Epoch rev:           18655
Checksum:              306

Satellite: LO-19
Catalog number: 20442
Epoch time:      12284.86576553
Element set:    0524
Inclination:      098.4080 deg
RA of node:       227.6649 deg
Eccentricity:    0.0011935
Arg of perigee:   163.7384 deg
Mean anomaly:     196.4181 deg
Mean motion:   14.32309612 rev/day
Decay rate:       2.52e-06 rev/day^2
Epoch rev:           18674
Checksum:              317

Satellite: AO-27
Catalog number: 22825
Epoch time:      12284.87855401
Element set:    0227
Inclination:      098.5855 deg
RA of node:       225.9482 deg
Eccentricity:    0.0007836
Arg of perigee:   304.7328 deg
Mean anomaly:     055.3108 deg
Mean motion:   14.29494567 rev/day
Decay rate:       1.95e-06 rev/day^2
Epoch rev:           99300
Checksum:              336

Satellite: IO-26
Catalog number: 22826
Epoch time:      12284.85718195
Element set:    0983
Inclination:      098.5793 deg
RA of node:       226.2679 deg
Eccentricity:    0.0008308
Arg of perigee:   298.7575 deg
Mean anomaly:     061.2768 deg
Mean motion:   14.29771342 rev/day
Decay rate:       1.37e-06 rev/day^2
Epoch rev:           99313
Checksum:              362

Satellite: GO-32
Catalog number: 25397
Epoch time:      12284.47869845
Element set:    0896
Inclination:      098.3779 deg
RA of node:       257.5965 deg
Eccentricity:    0.0000792
Arg of perigee:   358.5370 deg
Mean anomaly:     001.5802 deg
Mean motion:   14.23297628 rev/day
Decay rate:       1.24e-06 rev/day^2
Epoch rev:           74042
Checksum:              347

Satellite: NO-44
Catalog number: 26931
Epoch time:      12284.73787059
Element set:     156
Inclination:      067.0514 deg
RA of node:       182.5194 deg
Eccentricity:    0.0005866
Arg of perigee:   252.8751 deg
Mean anomaly:     107.1723 deg
Mean motion:   14.29840668 rev/day
Decay rate:       1.26e-06 rev/day^2
Epoch rev:           57576
Checksum:              330

